Regional Weather Roundup
Issued by NWS

Home | Current Version | Previous Version | Graphics & Text | Print | Product List | Glossary On
Versions: 1 2 3 4 5 6 7 8 9 10 11 12 13 14 15 16 17 18 19 20 21 22 23 24 25 26 27 28 29 30 31 32 33 34 35 36 37 38 39 40 41 42 43 44 45 46 47 48 49 50
000
ASUS44 KMEG 290710
RWRTN
TENNESSEE HOURLY STATE WEATHER ROUNDUP
NATIONAL WEATHER SERVICE MEMPHIS TN
200 AM CDT FRI APR 29 2016

TNZ002-004-019-021-049-052-054-088>092-290800-
WEST TENNESSEE

CITY           SKY/WX    TMP DP  RH WIND       PRES   REMARKS
MEMPHIS INTL   CLOUDY    68  51  54 E3        29.95S
NWS MEMPHIS      N/A     61 N/A N/A MISG        N/A
JACKSON        CLEAR     56  54  93 CALM      29.96F
DYERSBURG      CLOUDY    61  52  72 NE7       29.96F
UNION CITY     CLEAR     55  55 100 CALM      29.96S
LEXINGTON      CLEAR     55  55 100 CALM      29.97F
$$

TNZ008-025-027-028-033-062-065-066-290800-
NORTH MIDDLE TENNESSEE

CITY           SKY/WX    TMP DP  RH WIND       PRES   REMARKS
NASHVILLE      CLEAR     59  54  83 S3        30.00S
CLARKSVILLE    CLEAR     55  52  89 CALM      29.98F
SMYRNA         CLEAR     56  55  96 CALM      30.01S
COOKEVILLE     CLEAR     52  52 100 CALM      30.01S
CROSSVILLE     CLEAR     65  49  56 NW7       30.04R
$$

TNZ061-075-076-078-094-096-097-290800-
SOUTH MIDDLE TENNESSEE

CITY           SKY/WX    TMP DP  RH WIND       PRES   REMARKS
FAYETTEVILLE   CLEAR     61  54  77 N7        29.99S
TULLAHOMA      CLEAR     54  54 100 CALM      30.02R
WINCHESTER     MOCLDY    54  52  94 CALM      30.01S VSB 1
MCMINNVILLE    CLEAR     54  54 100 CALM      30.01S
COLUMBIA       CLEAR    N/A N/A N/A CALM      29.98F
SHELBYVILLE    CLEAR     55  54  94 S3        30.01R
$$

TNZ017-018-042-046-047-290800-
NORTHEAST TENNESSEE

CITY           SKY/WX    TMP DP  RH WIND       PRES   REMARKS
TRI CITIES     CLEAR     57  54  89 CALM      29.98S
$$

TNZ012-013-036-069-073-074-290800-
CENTRAL EAST TENNESSEE

CITY           SKY/WX    TMP DP  RH WIND       PRES   REMARKS
KNOXVILLE      NOT AVBL
OAK RIDGE      CLEAR     61  56  83 CALM      29.99S
GATLINBURG     SUNNY     57  55  94 CALM      29.99S
MORRISTOWN     SUNNY     66  52  59 NW5       29.98S
$$

TNZ083-085-099-290800-
SOUTHEAST TENNESSEE

CITY           SKY/WX    TMP DP  RH WIND       PRES   REMARKS
CHATTANOOGA    CLEAR     62  58  86 CALM      29.98S
$$

SKY/WX REPORTED AS FAIR MEANS FEW OR NO CLOUDS BELOW
12 THOUSAND FEET.




USA.gov is the U.S. government's official web portal to all federal, state and local government web resources and services.